100LL.CA
Aviation Fuel Pricing for Canadians
Please upgrade your browser - Tested with IE9, FireFox, Chrome, Safari

Fuel Prices Airport Info Airport List METAR / TAF Kneeboard RSS

Reference Airport: Kapuskasing, ON
N 49 24 42   W 082 28 06

CYYU Kapuskasing, ON
WEATHER
METARCYYU 300400Z 02003KT 15SM SKC M01/M06 A3037 RMK SLP300
TAFTAF CYYU 300138Z 3002/3014 04006KT P6SM SKC BECMG 3004/3006 VRB03KT FM300700 VRB03KT P6SM SKC PROB30 3007/3010 2SM BR RMK NXT FCST BY 300800Z
REF N 49 24 42  W 082 28 06    2W    10W
UTC-5(4)    Elev 743    A5009 LO4 HI4 CAP
OPR The Corporation of the Town of Kapuskasing 705-335-2611 Aprt 705-335-2341
Cert
PFB-1,6 C-2,3,4,5
FLT PLN NOTAM FILE CYYU
FIC London 866-WXBRIEF (Toll free within Canada) or 866-541-4104 (Toll free within Canada & USA)
WXMETAR H24. TAF H24, issue times: 02, 08,14, 20Z.
SERVICES Call out chg may be levied for one or more svcs.
FUEL100LL, JA-1, 705-335-0872 PN
PRICES100LL public: 1.860; JETA: 1.640; current as of 2014-02-23.
OIL65, 80, 100
RWY DATARwy 17(166)/35(346) 5506x100 asphalt
Rwy 10(098)/28(278) 3593x75 asphalt
RCRLondon FIC CRFI/RSC avbl ltd hrs. PLR/PCN
LIGHTING17-AO(TE ME) P2, 35-AO(TE ME) P2 ARCAL-122.2 type K
COMM
RCOLondon rdo 123.275 (FISE) 126.7(bcst)
MFtfc 122.2 5NM 3700 ASL (CAR 602.98)
NAV
NDBKASING YYU 341 (M) N49 27 53 W82 30 24
DMEYU 109.3 Ch 30 N49 24 42 W82 27 54 (762)
Effective 0901Z 02 March 2017 to 0901Z 27 April 2017